Station NIAN6 - 9063012 - Niagara Intake, NY Image indicating link to RSS feed of recent meteorological observations for station NIAN6


Conditions at NIAN6 as of
(2:48 pm EDT)
1848 GMT on 04/19/2024:
     

Click on the graph icon in the table below to see a time series plot of the last five days of that observation.

5-day plot - Atmospheric Pressure Atmospheric Pressure (PRES):29.84 in
5-day plot - Air Temperature Air Temperature (ATMP): 56.1 °F
NOS Water Level Observation Network Water Level
Previous observations
TIME
(EDT)
5-day plot - Wind Direction
WDIR
 
5-day plot - Wind Speed
WSPD
kts
5-day plot - Wind Gust
GST
kts
5-day plot - Wave Height
WVHT
ft
5-day plot - Dominant Wave Period
DPD
sec
5-day plot - Average Wave Period
APD
sec
5-day plot - Mean Wave Direction
MWD
 
5-day plot - Atmospheric Pressure
PRES
in
5-day plot - Pressure Tendency
PTDY
in
5-day plot - Air Temperature
ATMP
°F
5-day plot - Water Temperature
WTMP
°F
5-day plot - Dew Point
DEWP
°F
5-day plot - Salinity
SAL
psu
5-day plot - Visibility
VIS
nmi
5-day plot - Tide (above MLLW)
TIDE
ft
2024-04-19 02:42 pm-------29.83- 56.1-----
2024-04-19 02:36 pm-------29.83- 55.0-----
2024-04-19 02:30 pm-------29.83- 55.6-----
2024-04-19 02:24 pm-------29.83- 55.4-----
2024-04-19 02:18 pm-------29.83- 54.7-----
2024-04-19 02:12 pm-------29.83- 54.0-----
2024-04-19 02:06 pm-------29.83- 53.2-----
2024-04-19 02:00 pm-------29.83+0.03 55.4-----
2024-04-19 01:54 pm-------29.82- 55.8-----
2024-04-19 01:48 pm-------29.81- 55.4-----
2024-04-19 01:42 pm-------29.81- 55.4-----
2024-04-19 01:36 pm-------29.80- 55.6-----
2024-04-19 01:30 pm-------29.80- 55.4-----
2024-04-19 01:24 pm-------29.80- 55.9-----
2024-04-19 01:18 pm-------29.80- 56.1-----
2024-04-19 01:12 pm-------29.80- 55.8-----
2024-04-19 01:06 pm-------29.80- 56.1-----
2024-04-19 01:00 pm-------29.80+0.03 57.0-----
2024-04-19 12:54 pm-------29.80- 57.4-----
2024-04-19 12:48 pm-------29.80- 57.9-----
2024-04-19 12:42 pm-------29.80- 57.2-----
2024-04-19 12:36 pm-------29.80- 57.4-----
2024-04-19 12:30 pm-------29.80- 57.7-----
2024-04-19 12:24 pm-------29.80- 56.7-----
2024-04-19 12:18 pm-------29.80- 56.3-----
2024-04-19 12:12 pm-------29.80- 57.0-----
2024-04-19 12:06 pm-------29.80- 56.7-----
2024-04-19 12:00 pm-------29.79-0.06 57.0-----
2024-04-19 11:54 am-------29.80- 56.8-----
2024-04-19 11:48 am-------29.80- 55.8-----
2024-04-19 11:42 am-------29.80- 56.3-----
2024-04-19 11:36 am-------29.80- 55.8-----
2024-04-19 11:30 am-------29.80- 55.8-----
2024-04-19 11:24 am-------29.80- 55.8-----
2024-04-19 11:18 am-------29.80- 55.2-----
2024-04-19 11:12 am-------29.80- 55.6-----
2024-04-19 11:06 am-------29.80- 55.4-----
2024-04-19 11:00 am-------29.80-0.07 55.4-----
2024-04-19 10:54 am-------29.80- 54.5-----
2024-04-19 10:48 am-------29.79- 54.3-----
2024-04-19 10:42 am-------29.80- 54.3-----
2024-04-19 10:36 am-------29.79- 54.1-----
2024-04-19 10:30 am-------29.79- 53.4-----
2024-04-19 10:24 am-------29.78- 52.9-----
2024-04-19 10:18 am-------29.79- 53.1-----
2024-04-19 10:12 am-------29.79- 52.9-----
2024-04-19 10:06 am-------29.80- 52.2-----
2024-04-19 10:00 am-------29.77-0.08 52.0-----
2024-04-19 09:54 am-------29.80- 51.6-----
2024-04-19 09:48 am-------29.80- 51.3-----
2024-04-19 09:42 am-------29.79- 49.8-----
2024-04-19 09:36 am-------29.80- 50.0-----
2024-04-19 09:30 am-------29.80- 50.7-----
2024-04-19 09:24 am-------29.81- 50.4-----
2024-04-19 09:18 am-------29.81- 50.0-----
2024-04-19 09:12 am-------29.81- 49.5-----
2024-04-19 09:06 am-------29.82- 48.6-----
2024-04-19 09:00 am-------29.85-0.04 47.8-----
2024-04-19 08:54 am-------29.86- 48.0-----
2024-04-19 08:48 am-------29.85- 47.7-----
2024-04-19 08:42 am-------29.85- 47.5-----
2024-04-19 08:36 am-------29.85- 47.1-----
2024-04-19 08:30 am-------29.86- 47.7-----
2024-04-19 08:24 am-------29.86- 49.3-----
2024-04-19 08:18 am-------29.85- 49.3-----
2024-04-19 08:12 am-------29.85- 49.1-----
2024-04-19 08:06 am-------29.87- 48.9-----
2024-04-19 08:00 am-------29.87-0.05 48.7-----
2024-04-19 07:54 am-------29.88- 48.6-----
2024-04-19 07:48 am-------29.89- 48.6-----
2024-04-19 07:42 am-------29.89- 48.2-----
2024-04-19 07:36 am-------29.89- 47.8-----
2024-04-19 07:30 am-------29.88- 48.0-----
2024-04-19 07:24 am-------29.88- 48.0-----
2024-04-19 07:18 am-------29.88- 48.2-----
2024-04-19 07:12 am-------29.86- 48.0-----
2024-04-19 07:06 am-------29.86- 48.0-----
2024-04-19 07:00 am-------29.85-0.10 48.0-----
2024-04-19 06:54 am-------29.85- 48.0-----
2024-04-19 06:48 am-------29.84- 47.8-----
2024-04-19 06:42 am-------29.84- 47.7-----
2024-04-19 06:36 am-------29.85- 47.7-----
2024-04-19 06:30 am-------29.86- 47.7-----
2024-04-19 06:24 am-------29.86- 47.7-----
2024-04-19 06:18 am-------29.87- 47.7-----
2024-04-19 06:12 am-------29.88- 47.5-----
2024-04-19 06:06 am-------29.88- 47.5-----
2024-04-19 06:00 am-------29.88-0.09 47.3-----
2024-04-19 05:54 am-------29.89- 47.1-----
2024-04-19 05:48 am-------29.89- 46.9-----
2024-04-19 05:42 am-------29.90- 46.8-----
2024-04-19 05:36 am-------29.90- 46.6-----
2024-04-19 05:30 am-------29.90- 46.8-----
2024-04-19 05:24 am-------29.91- 47.1-----
2024-04-19 05:18 am-------29.92- 46.9-----
2024-04-19 05:12 am-------29.92- 46.9-----
2024-04-19 05:06 am-------29.92- 46.8-----
2024-04-19 05:00 am-------29.92-0.07 46.6-----
2024-04-19 04:54 am-------29.92- 46.6-----
2024-04-19 04:48 am-------29.92- 46.4-----
2024-04-19 04:42 am-------29.93- 46.4-----
2024-04-19 04:36 am-------29.93- 46.4-----
2024-04-19 04:30 am-------29.93- 46.4-----
2024-04-19 04:24 am-------29.93- 46.6-----
2024-04-19 04:18 am-------29.93- 46.2-----
2024-04-19 04:12 am-------29.94- 46.2-----
2024-04-19 04:06 am-------29.94- 46.2-----
2024-04-19 04:00 am-------29.95-0.07 46.4-----
2024-04-19 03:54 am-------29.96- 46.2-----
2024-04-19 03:48 am-------29.96- 46.2-----
2024-04-19 03:42 am-------29.96- 46.0-----
2024-04-19 03:36 am-------29.96- 45.9-----
2024-04-19 03:30 am-------29.96- 45.9-----
2024-04-19 03:24 am-------29.96- 45.9-----
2024-04-19 03:18 am-------29.96- 46.0-----
2024-04-19 03:12 am-------29.97- 46.0-----
2024-04-19 03:06 am-------29.97- 46.0-----
2024-04-19 03:00 am-------29.97-0.06 46.2-----
2024-04-19 02:54 am-------29.98- 46.4-----
2024-04-19 02:48 am-------29.98- 46.2-----
2024-04-19 02:42 am-------29.97- 46.2-----
2024-04-19 02:36 am-------29.97- 46.2-----
2024-04-19 02:30 am-------29.97- 46.2-----
2024-04-19 02:24 am-------29.98- 46.2-----
2024-04-19 02:18 am-------29.98- 46.0-----
2024-04-19 02:12 am-------29.99- 46.0-----
2024-04-19 02:06 am-------29.99- 46.0-----
2024-04-19 02:00 am-------29.99-0.05 46.0-----
2024-04-19 01:54 am-------30.00- 45.9-----
2024-04-19 01:48 am-------30.00- 45.7-----
2024-04-19 01:42 am-------30.01- 45.7-----
2024-04-19 01:36 am-------30.01- 45.7-----
2024-04-19 01:30 am-------30.01- 45.5-----
2024-04-19 01:24 am-------30.02- 45.3-----
2024-04-19 01:18 am-------30.02- 45.1-----
2024-04-19 01:12 am-------30.02- 45.1-----
2024-04-19 01:06 am-------30.02- 45.0-----
2024-04-19 01:00 am-------30.02-0.03 45.0-----
2024-04-19 12:54 am-------30.03- 45.1-----
2024-04-19 12:48 am-------30.03- 45.7-----
2024-04-19 12:42 am-------30.02- 45.7-----
2024-04-19 12:36 am-------30.02- 45.5-----
2024-04-19 12:30 am-------30.02- 45.5-----
2024-04-19 12:24 am-------30.02- 45.5-----
2024-04-19 12:18 am-------30.02- 45.5-----
2024-04-19 12:12 am-------30.03- 45.7-----
2024-04-19 12:06 am-------30.03- 45.9-----
2024-04-19 12:00 am-------30.03-0.01 45.9-----
2024-04-18 11:54 pm-------30.03- 46.4-----
2024-04-18 11:48 pm-------30.03- 46.4-----
2024-04-18 11:42 pm-------30.04- 46.2-----
2024-04-18 11:36 pm-------30.04- 46.2-----
2024-04-18 11:30 pm-------30.03- 46.2-----
2024-04-18 11:24 pm-------30.04- 46.2-----
2024-04-18 11:18 pm-------30.03- 46.4-----
2024-04-18 11:12 pm-------30.04- 46.2-----
2024-04-18 11:06 pm-------30.04- 46.2-----
2024-04-18 11:00 pm-------30.05-0.01 46.2-----
2024-04-18 10:54 pm-------30.05- 46.2-----
2024-04-18 10:48 pm-------30.05- 46.0-----
2024-04-18 10:42 pm-------30.05- 46.2-----
2024-04-18 10:36 pm-------30.05- 46.4-----
2024-04-18 10:30 pm-------30.04- 46.2-----
2024-04-18 10:24 pm-------30.04- 46.2-----
2024-04-18 10:18 pm-------30.04- 46.6-----
2024-04-18 10:12 pm-------30.04- 46.6-----
2024-04-18 10:06 pm-------30.05- 46.8-----
2024-04-18 10:00 pm-------30.05-0.01 46.9-----
2024-04-18 09:54 pm-------30.05- 47.3-----
2024-04-18 09:48 pm-------30.04- 47.3-----
2024-04-18 09:42 pm-------30.04- 47.5-----
2024-04-18 09:36 pm-------30.02- 47.8-----
2024-04-18 09:30 pm-------30.02- 47.7-----
2024-04-18 09:24 pm-------30.03- 47.8-----
2024-04-18 09:18 pm-------30.03- 48.2-----
2024-04-18 09:12 pm-------30.03- 48.2-----
2024-04-18 09:06 pm-------30.03- 48.6-----
2024-04-18 09:00 pm-------30.04-0.02 48.9-----
2024-04-18 08:54 pm-------30.04- 48.9-----
2024-04-18 08:48 pm-------30.05- 48.7-----
2024-04-18 08:42 pm-------30.05- 48.4-----
2024-04-18 08:36 pm-------30.06- 48.7-----
2024-04-18 08:30 pm-------30.05- 48.7-----
2024-04-18 08:24 pm-------30.05- 48.6-----
2024-04-18 08:18 pm-------30.05- 48.6-----
2024-04-18 08:12 pm-------30.06- 48.2-----
2024-04-18 08:06 pm-------30.06- 48.2-----
2024-04-18 08:00 pm-------30.06+0.01 48.6-----
2024-04-18 07:54 pm-------30.06- 48.9-----
2024-04-18 07:48 pm-------30.06- 49.3-----
2024-04-18 07:42 pm-------30.06- 49.5-----
2024-04-18 07:36 pm-------30.06- 49.8-----
2024-04-18 07:30 pm-------30.06- 49.8-----
2024-04-18 07:24 pm-------30.06- 49.8-----
2024-04-18 07:18 pm-------30.06- 50.0-----
2024-04-18 07:12 pm-------30.06- 50.2-----
2024-04-18 07:06 pm-------30.06- 49.8-----
2024-04-18 07:00 pm-------30.06+0.02 50.2-----
2024-04-18 06:54 pm-------30.06- 50.2-----
2024-04-18 06:48 pm-------30.06- 50.0-----
2024-04-18 06:42 pm-------30.06- 49.5-----
2024-04-18 06:36 pm-------30.06- 50.0-----
2024-04-18 06:30 pm-------30.06- 49.6-----
2024-04-18 06:24 pm-------30.06- 50.4-----
2024-04-18 06:18 pm-------30.06- 50.2-----
2024-04-18 06:12 pm-------30.06- 50.2-----
2024-04-18 06:06 pm-------30.06- 50.4-----
2024-04-18 06:00 pm-------30.06+0.03------
2024-04-18 05:54 pm-------30.06-------
2024-04-18 05:48 pm-------30.06- 50.4-----
2024-04-18 05:42 pm-------30.06- 50.5-----
2024-04-18 05:36 pm-------30.05- 50.5-----
2024-04-18 05:30 pm-------30.05- 50.7-----
2024-04-18 05:24 pm-------30.05- 50.7-----
2024-04-18 05:18 pm-------30.05- 50.9-----
2024-04-18 05:12 pm-------30.05- 50.7-----
2024-04-18 05:06 pm-------30.05- 50.5-----
2024-04-18 05:00 pm-------30.05+0.03 50.7-----
2024-04-18 04:54 pm-------30.05- 50.7-----
2024-04-18 04:48 pm-------30.04- 50.7-----
2024-04-18 04:42 pm-------30.04- 50.7-----
2024-04-18 04:36 pm-------30.04- 50.9-----
2024-04-18 04:30 pm-------30.04- 51.1-----
2024-04-18 04:24 pm-------30.04- 51.1-----
2024-04-18 04:18 pm-------30.04- 51.1-----
2024-04-18 04:12 pm-------30.04- 51.1-----
2024-04-18 04:06 pm-------30.03- 51.4-----
2024-04-18 04:00 pm-------30.03+0.03 51.3-----
2024-04-18 03:54 pm-------30.03- 51.8-----
2024-04-18 03:48 pm-------30.04- 51.6-----
2024-04-18 03:42 pm-------30.03- 51.4-----
2024-04-18 03:36 pm-------30.03- 51.4-----
2024-04-18 03:30 pm-------30.03- 51.1-----
2024-04-18 03:24 pm-------30.03- 51.4-----
2024-04-18 03:18 pm-------30.03- 50.2-----
2024-04-18 03:12 pm-------30.03- 52.2-----
2024-04-18 03:06 pm-------30.03- 50.7-----
2024-04-18 03:00 pm-------30.03+0.01 51.3-----
2024-04-18 02:54 pm-------30.03- 51.4-----